TimeEDT,TemperatureF,Dew PointF,Humidity,Sea Level PressureIn,VisibilityMPH,Wind Direction,Wind SpeedMPH,Gust SpeedMPH,PrecipitationIn,Events,Conditions,WindDirDegrees,DateUTC
12:54 AM,44.1,39.9,85,29.55,9.0,Calm,Calm,-,0.00,Rain,Light Rain,0,2012-11-02 04:54:00
1:54 AM,43.0,39.9,89,29.54,10.0,Calm,Calm,-,0.00,,Overcast,0,2012-11-02 05:54:00
2:54 AM,43.0,39.9,89,29.54,10.0,Calm,Calm,-,N/A,,Overcast,0,2012-11-02 06:54:00
3:54 AM,42.1,39.0,89,29.54,10.0,Calm,Calm,-,N/A,,Overcast,0,2012-11-02 07:54:00
4:54 AM,43.0,39.9,89,29.54,9.0,Calm,Calm,-,N/A,,Overcast,0,2012-11-02 08:54:00
5:54 AM,42.1,39.0,89,29.55,10.0,Calm,Calm,-,N/A,,Overcast,0,2012-11-02 09:54:00
6:37 AM,41.0,37.4,87,29.53,9.0,Calm,Calm,-,N/A,,Overcast,0,2012-11-02 10:37:00
6:54 AM,39.9,37.9,93,29.55,6.0,Calm,Calm,-,N/A,,Mostly Cloudy,0,2012-11-02 10:54:00
7:54 AM,41.0,37.9,89,29.57,10.0,South,3.5,-,N/A,,Overcast,180,2012-11-02 11:54:00
8:54 AM,43.0,39.0,86,29.58,10.0,Calm,Calm,-,N/A,,Scattered Clouds,0,2012-11-02 12:54:00
9:54 AM,46.9,36.0,66,29.57,10.0,South,4.6,-,N/A,,Mostly Cloudy,170,2012-11-02 13:54:00
10:54 AM,48.0,30.9,52,29.57,10.0,West,11.5,-,N/A,,Overcast,270,2012-11-02 14:54:00
11:54 AM,48.9,30.0,48,29.57,10.0,West,11.5,-,0.01,,Mostly Cloudy,260,2012-11-02 15:54:00
12:54 PM,48.9,30.0,48,29.56,10.0,WNW,8.1,18.4,N/A,,Overcast,290,2012-11-02 16:54:00
2:54 PM,48.0,28.9,48,29.56,10.0,West,10.4,17.3,N/A,,Overcast,280,2012-11-02 18:54:00
3:54 PM,46.9,30.9,54,29.58,10.0,NW,4.6,-,N/A,,Overcast,320,2012-11-02 19:54:00
4:54 PM,46.9,30.0,52,29.58,10.0,NNW,4.6,-,N/A,,Overcast,330,2012-11-02 20:54:00
5:54 PM,46.0,30.0,54,29.60,10.0,NW,4.6,-,N/A,,Overcast,320,2012-11-02 21:54:00
6:54 PM,46.0,28.9,51,29.62,10.0,WNW,9.2,-,0.00,,Overcast,300,2012-11-02 22:54:00
7:54 PM,45.0,28.9,53,29.64,10.0,WNW,8.1,-,N/A,,Overcast,290,2012-11-02 23:54:00
8:54 PM,45.0,28.9,53,29.65,10.0,West,8.1,-,N/A,,Overcast,280,2012-11-03 00:54:00
9:54 PM,44.1,28.9,55,29.65,10.0,West,5.8,-,N/A,,Overcast,280,2012-11-03 01:54:00
10:54 PM,44.1,28.9,55,29.66,10.0,West,3.5,-,N/A,,Overcast,280,2012-11-03 02:54:00
11:54 PM,43.0,30.0,60,29.66,10.0,Calm,Calm,-,N/A,,Overcast,0,2012-11-03 03:54:00